WetterOnline ( https://www.wetteronline.de )

Wetter aktuell Erharting

Aktuelles Wetter: Mühldorf am Inn (410m)

6-stündlich | Neueste Meldungen
Ortszeit Temperatur Wetter
Sa, 25.09. 2:00 7.1° C Nebel
Fr, 24.09. 20:00 13.9° C wolkenlos
Fr, 24.09. 14:00 19.8° C wolkenlos
Fr, 24.09. 8:00 7.8° C leicht bewölkt
Fr, 24.09. 2:00 10.1° C leicht bewölkt
Do, 23.09. 20:00 12.9° C wolkig
Do, 23.09. 14:00 19.1° C wolkenlos
Do, 23.09. 8:00 5.1° C leicht bewölkt
Ortszeit Temperatur Wetter
Sa, 25.09. 3:30 6.8° C bedeckt
Sa, 25.09. 3:20 6.8° C bedeckt
Sa, 25.09. 3:10 7.3° C Nebel
Sa, 25.09. 3:00 6.9° C Nebel
Sa, 25.09. 2:50 6.9° C Nebel
Sa, 25.09. 2:40 6.5° C Nebel
Sa, 25.09. 2:30 6.9° C Nebel
Sa, 25.09. 2:00 7.1° C Nebel
Sa, 25.09. 1:30 7.3° C fast wolkenlos
Sa, 25.09. 1:00 8.7° C wolkenlos
Sa, 25.09. 0:30 9.5° C wolkenlos
Ortszeit Relative Feuchte Sichtweite
Sa, 25.09. 2:00 99% 0.7 km
Fr, 24.09. 20:00 85% 9 km
Fr, 24.09. 14:00 56% >70 km
Fr, 24.09. 8:00 99% 9 km
Fr, 24.09. 2:00 90% 28 km
Do, 23.09. 20:00 86% 45 km
Do, 23.09. 14:00 51% 65 km
Do, 23.09. 8:00 98% 7 km
Ortszeit Relative Feuchte Sichtweite
Sa, 25.09. 3:30 99% 3.9 km
Sa, 25.09. 3:20 99% -
Sa, 25.09. 3:10 100% -
Sa, 25.09. 3:00 100% 100 m
Sa, 25.09. 2:50 100% -
Sa, 25.09. 2:40 99% -
Sa, 25.09. 2:30 99% 100 m
Sa, 25.09. 2:00 99% 0.7 km
Sa, 25.09. 1:30 97% 13 km
Sa, 25.09. 1:00 98% 15 km
Sa, 25.09. 0:30 99% 12 km
Ortszeit Niederschlagsmenge Niederschlagsart
Sa, 25.09. 2:00 0.0 l/m2 in 6 Std. -
Fr, 24.09. 20:00 0.0 l/m2 in 12 Std. -
Fr, 24.09. 14:00 0.0 l/m2 in 6 Std. -
Fr, 24.09. 8:00 0.0 l/m2 in 12 Std. -
Fr, 24.09. 2:00 0.0 l/m2 in 6 Std. -
Do, 23.09. 20:00 0.0 l/m2 in 12 Std. -
Do, 23.09. 14:00 0.0 l/m2 in 6 Std. -
Do, 23.09. 8:00 0.0 l/m2 in 12 Std. -
Ortszeit Niederschlagsmenge Niederschlagsart
Sa, 25.09. 3:30 0.0 l/m2 in 1 Std. -
Sa, 25.09. 3:20 keine Meldung -
Sa, 25.09. 3:10 keine Meldung -
Sa, 25.09. 3:00 0.0 l/m2 in 1 Std. -
Sa, 25.09. 2:50 keine Meldung -
Sa, 25.09. 2:40 keine Meldung -
Sa, 25.09. 2:30 0.0 l/m2 in 1 Std. -
Sa, 25.09. 2:00 0.0 l/m2 in 1 Std. -
Sa, 25.09. 1:30 0.0 l/m2 in 1 Std. -
Sa, 25.09. 1:00 0.0 l/m2 in 1 Std. -
Sa, 25.09. 0:30 0.0 l/m2 in 1 Std. -
Ortszeit Stärke Spitze Richtung
km/h Bft. km/h Grad Sektor
Sa, 25.09. 2:00 0 0 7 - -
Fr, 24.09. 20:00 4 1 36 290° W
Fr, 24.09. 14:00 15 3 31 270° W
Fr, 24.09. 8:00 0 0 14 - -
Fr, 24.09. 2:00 4 1 11 210° SW
Do, 23.09. 20:00 4 1 14 270° W
Do, 23.09. 14:00 4 1 18 200° S
Do, 23.09. 8:00 4 1 7 90° O
Ortszeit Stärke Spitze Richtung
km/h Bft. km/h Grad Sektor
Sa, 25.09. 3:30 0 0 4 - -
Sa, 25.09. 3:20 0 0 - 130° SO
Sa, 25.09. 3:10 4 1 - 160° S
Sa, 25.09. 3:00 4 1 4 250° W
Sa, 25.09. 2:50 - - - - -
Sa, 25.09. 2:40 - - - - -
Sa, 25.09. 2:30 0 0 4 - -
Sa, 25.09. 2:00 0 0 4 - -
Sa, 25.09. 1:30 2 1 6 280° W
Sa, 25.09. 1:00 4 1 7 90° O
Sa, 25.09. 0:30 4 1 7 130° SO
Ortszeit Untergrenze Bedeckung Gattung
total tief tief mittel hoch
Sa, 25.09. 2:00 <30 m 0/8 0/8 - - -
Fr, 24.09. 20:00 - 0/8 0/8 - - -
Fr, 24.09. 14:00 - 0/8 0/8 - - -
Fr, 24.09. 8:00 2400 m 2/8 2/8 - - -
Fr, 24.09. 2:00 9000 m 3/8 0/8 - - -
Do, 23.09. 20:00 9000 m 8/8 0/8 - - -
Do, 23.09. 14:00 - 0/8 0/8 - - -
Do, 23.09. 8:00 <30 m 2/8 0/8 - - -
Ortszeit Bedeckungsgrad in Achtel und Wolkenuntergrenze
Sa, 25.09. 3:30 8(<30m)
Sa, 25.09. 3:20 8(<30m)
Sa, 25.09. 3:10 7(<30m)
Sa, 25.09. 3:00 3(<30m)
Sa, 25.09. 2:50 3(<30m)
Sa, 25.09. 2:40 3(<30m)
Sa, 25.09. 2:30 3(<30m)
Sa, 25.09. 2:00 1(<30m)
Sa, 25.09. 1:30 1(<30m)
Sa, 25.09. 1:00 keine Wolken
Sa, 25.09. 0:30 keine Wolken
Ortszeit Luftdruck NN (hPa) Tendenz (hPa in 3 Std.)
Sa, 25.09. 2:00 1021 + 0,3
Fr, 24.09. 20:00 1018 + 0,1
Fr, 24.09. 14:00 1018 - 0,9
Fr, 24.09. 8:00 1021 + 0,7
Fr, 24.09. 2:00 1019 + 0,1
Do, 23.09. 20:00 1018 - 0,7
Do, 23.09. 14:00 1020 - 1,6
Do, 23.09. 8:00 1025 - 1,1
Ortszeit Luftdruck NN (hPa) Tendenz (hPa in 3 Std.)
Sa, 25.09. 3:30 1021 + 0,1
Sa, 25.09. 3:20 1021 keine Meldung
Sa, 25.09. 3:10 1021 keine Meldung
Sa, 25.09. 3:00 1021 + 0,3
Sa, 25.09. 2:50 1021 keine Meldung
Sa, 25.09. 2:40 1021 keine Meldung
Sa, 25.09. 2:30 1021 + 0,2
Sa, 25.09. 2:00 1021 + 0,3
Sa, 25.09. 1:30 1021 + 0,3
Sa, 25.09. 1:00 1020 + 0,4
Sa, 25.09. 0:30 1020 + 0,5
Ortszeit Schneehöhe (cm)
Sa, 25.09. 2:00 -
Fr, 24.09. 20:00 -
Fr, 24.09. 14:00 -
Fr, 24.09. 8:00 -
Fr, 24.09. 2:00 -
Do, 23.09. 20:00 -
Do, 23.09. 14:00 -
Do, 23.09. 8:00 -
Ortszeit Schneehöhe (cm)
Sa, 25.09. 3:30 -
Sa, 25.09. 3:20 -
Sa, 25.09. 3:10 -
Sa, 25.09. 3:00 -
Sa, 25.09. 2:50 -
Sa, 25.09. 2:40 -
Sa, 25.09. 2:30 -
Sa, 25.09. 2:00 -
Sa, 25.09. 1:30 -
Sa, 25.09. 1:00 -
Sa, 25.09. 0:30 -
Link zu dieser Seite / Seite empfehlen

Das Wetter in ...